THY6528 LTFM-UAAA

Flight info

Callsign THY6528
Flight time N/A
Altitude 37000
Route EKAWE1D/35L EKAWE UT643 GAKSU UT310 SIN UN644 KARDE UL851 TBN UR317 REBLO/N0490F370 DCT MATAL T916 LEYLA N161 GASBI/K0904F370 N161 DIVNO M610 ORTEG L855 RISAS Z370 EKLAT DCT
Aircraft B77W/H-SDE1E2E3FGHIJ2J3J4J5M1RWXY/LB1D1

Departure

Time 2026-05-05 22:48
Airport İstanbul Airport (LTFM)

Arrival

Time N/A
Airport Almaty International Airport (UAAA)
Time Latitude Longitude Altitude Speed Heading
2026-05-05 22:08 41.26602 28.74118 317 ft 0 kts 89°
2026-05-05 22:08 41.26602 28.74134 318 ft 0 kts 89°
2026-05-05 22:35 41.26601 28.74109 318 ft 4 kts 82°
2026-05-05 22:35 41.26596 28.74075 315 ft 4 kts 68°
2026-05-05 22:36 41.26583 28.74044 316 ft 4 kts 46°
2026-05-05 22:36 41.26562 28.74024 316 ft 4 kts 17°
2026-05-05 22:36 41.26545 28.74020 315 ft 0 kts 359°
2026-05-05 22:41 41.26558 28.74019 318 ft 6 kts 359°
2026-05-05 22:41 41.26622 28.74019 318 ft 11 kts 359°
2026-05-05 22:41 41.26698 28.74017 318 ft 11 kts 359°
2026-05-05 22:42 41.26775 28.74016 318 ft 11 kts 359°
2026-05-05 22:42 41.26834 28.74013 318 ft 7 kts 347°
2026-05-05 22:42 41.26869 28.73964 318 ft 10 kts 289°
2026-05-05 22:42 41.26874 28.73841 318 ft 15 kts 270°
2026-05-05 22:43 41.26873 28.73706 318 ft 15 kts 269°
2026-05-05 22:43 41.26871 28.73571 318 ft 15 kts 269°
2026-05-05 22:43 41.26870 28.73436 318 ft 15 kts 270°
2026-05-05 22:43 41.26869 28.73301 318 ft 15 kts 269°
2026-05-05 22:44 41.26867 28.73164 317 ft 16 kts 269°
2026-05-05 22:44 41.26863 28.73050 313 ft 11 kts 257°
2026-05-05 22:44 41.26809 28.72992 316 ft 11 kts 182°
2026-05-05 22:44 41.26743 28.72973 315 ft 10 kts 218°
2026-05-05 22:45 41.26718 28.72889 313 ft 10 kts 266°
2026-05-05 22:45 41.26716 28.72794 314 ft 10 kts 269°
2026-05-05 22:45 41.26715 28.72699 315 ft 10 kts 269°
2026-05-05 22:45 41.26714 28.72604 318 ft 10 kts 269°
2026-05-05 22:46 41.26748 28.72527 315 ft 11 kts 332°
2026-05-05 22:46 41.26791 28.72516 315 ft 0 kts 359°
2026-05-05 22:46 41.26812 28.72515 312 ft 12 kts 358°
2026-05-05 22:47 41.27073 28.72509 307 ft 75 kts 359°
2026-05-05 22:47 41.27857 28.72492 283 ft 147 kts 359°
2026-05-05 22:47 41.29063 28.72494 351 ft 191 kts
2026-05-05 22:47 41.30445 28.72468 778 ft 206 kts 360°
2026-05-05 22:48 41.31906 28.72453 1533 ft 209 kts 359°
2026-05-05 22:48 41.33353 28.72346 2346 ft 209 kts 355°
2026-05-05 22:48 41.34823 28.72230 2932 ft 219 kts
2026-05-05 22:48 41.36432 28.72302 3330 ft 239 kts
2026-05-05 22:49 41.38099 28.72382 4107 ft 240 kts 359°
2026-05-05 22:49 41.39708 28.71803 4771 ft 242 kts 335°
2026-05-05 22:49 41.41206 28.70744 5012 ft 246 kts 335°
2026-05-05 22:49 41.42746 28.69716 5009 ft 247 kts 336°
2026-05-05 22:50 41.44286 28.68706 4987 ft 245 kts 336°
2026-05-05 22:50 41.45795 28.67726 5005 ft 245 kts 336°
2026-05-05 22:50 41.47340 28.66728 5032 ft 249 kts 336°
2026-05-05 22:50 41.48904 28.65724 5622 ft 250 kts 337°
2026-05-05 22:51 41.50467 28.64721 6558 ft 249 kts 337°
2026-05-05 22:51 41.52037 28.63715 7371 ft 252 kts 337°
2026-05-05 22:51 41.53642 28.62688 7958 ft 259 kts 337°
2026-05-05 22:51 41.55307 28.61828 8427 ft 256 kts 353°
2026-05-05 22:52 41.57077 28.62011 8947 ft 259 kts 18°
2026-05-05 22:52 41.58684 28.63136 9489 ft 265 kts 34°
2026-05-05 22:52 41.59936 28.64968 10020 ft 271 kts 52°
2026-05-05 22:52 41.60961 28.67113 10519 ft 275 kts 53°
2026-05-05 22:53 41.61983 28.69285 11024 ft 278 kts 54°
2026-05-05 22:53 41.63018 28.71484 11520 ft 281 kts 54°
2026-05-05 22:53 41.64065 28.73697 12031 ft 283 kts 54°
2026-05-05 22:53 41.65122 28.75923 12544 ft 284 kts 54°
2026-05-05 22:54 41.66189 28.78160 13069 ft 286 kts 54°
2026-05-05 22:54 41.67261 28.80403 13597 ft 287 kts 54°
2026-05-05 22:54 41.68329 28.82635 14027 ft 290 kts 54°
2026-05-05 22:54 41.69431 28.84933 14069 ft 295 kts 54°
2026-05-05 22:55 41.70538 28.87245 14079 ft 294 kts 54°
2026-05-05 22:55 41.71636 28.89542 14069 ft 292 kts 54°
2026-05-05 22:55 41.72732 28.91832 14077 ft 298 kts 54°
2026-05-05 22:55 41.73866 28.94308 14192 ft 323 kts 58°
2026-05-05 22:56 41.74876 28.97069 14665 ft 337 kts 62°
2026-05-05 22:56 41.75863 29.00007 15130 ft 357 kts 63°
2026-05-05 22:56 41.76908 29.03146 15397 ft 379 kts 63°
2026-05-05 22:56 41.78003 29.06420 16036 ft 390 kts 63°
2026-05-05 22:57 41.79132 29.09764 16785 ft 397 kts 63°
2026-05-05 22:57 41.80288 29.13159 17644 ft 403 kts 63°
2026-05-05 22:57 41.81463 29.16592 18469 ft 408 kts 63°
2026-05-05 22:57 41.82656 29.20069 19185 ft 413 kts 63°
2026-05-05 22:58 41.83851 29.23552 19915 ft 417 kts 63°
2026-05-05 22:58 41.85071 29.27108 20649 ft 422 kts 63°
2026-05-05 22:58 41.86303 29.30704 21369 ft 426 kts 63°
2026-05-05 22:58 41.87548 29.34344 22086 ft 431 kts 63°
2026-05-05 22:59 41.88803 29.38016 22848 ft 434 kts 63°
2026-05-05 22:59 41.90069 29.41725 23586 ft 437 kts 63°
2026-05-05 22:59 41.91542 29.45242 24116 ft 439 kts 51°
2026-05-05 22:59 41.93559 29.48337 24695 ft 440 kts 45°
2026-05-05 23:00 41.97770 29.54393 25867 ft 446 kts 46°
2026-05-05 23:00 41.99840 29.57516 26458 ft 449 kts 46°
2026-05-05 23:00 42.01902 29.60684 26994 ft 452 kts 47°
2026-05-05 23:01 42.03922 29.63914 27452 ft 454 kts 52°
2026-05-05 23:01 42.05382 29.67737 27738 ft 467 kts 69°
2026-05-05 23:01 42.06001 29.72061 28210 ft 476 kts 84°
2026-05-05 23:01 42.05818 29.76530 28684 ft 480 kts 93°
2026-05-05 23:02 42.05432 29.81020 29048 ft 485 kts 93°
2026-05-05 23:02 42.05048 29.85540 29431 ft 488 kts 93°
2026-05-05 23:02 42.04688 29.90091 29832 ft 491 kts 92°
2026-05-05 23:02 42.04355 29.94611 30224 ft 493 kts 91°
2026-05-05 23:03 42.04031 29.99203 30641 ft 492 kts 91°
2026-05-05 23:03 42.03711 30.03773 31120 ft 490 kts 91°
2026-05-05 23:03 42.03382 30.08322 31628 ft 485 kts 92°
2026-05-05 23:03 42.02629 30.12778 31927 ft 496 kts 107°
2026-05-05 23:04 42.00913 30.16829 32254 ft 502 kts 124°
2026-05-05 23:04 41.98739 30.20536 32507 ft 505 kts 125°
2026-05-05 23:04 41.96569 30.24263 32863 ft 505 kts 124°
2026-05-05 23:04 41.94435 30.28005 33300 ft 503 kts 123°
2026-05-05 23:05 41.92336 30.31751 33774 ft 501 kts 123°
2026-05-05 23:05 41.90258 30.35498 34173 ft 500 kts 122°
2026-05-05 23:05 41.88212 30.39199 34472 ft 500 kts 123°
2026-05-05 23:05 41.86134 30.42956 34745 ft 500 kts 123°
2026-05-05 23:06 41.84056 30.46702 34978 ft 502 kts 123°
2026-05-05 23:06 41.81954 30.50483 35043 ft 506 kts 123°
2026-05-05 23:06 41.77855 30.58113 35051 ft 496 kts 114°
2026-05-05 23:07 41.76673 30.62371 35057 ft 484 kts 96°
2026-05-05 23:07 41.76351 30.66757 35075 ft 477 kts 84°
2026-05-05 23:07 41.76771 30.71120 35063 ft 468 kts 71°
2026-05-05 23:07 41.77629 30.75323 35077 ft 468 kts 70°
2026-05-05 23:08 41.79360 30.83787 35086 ft 472 kts 71°
2026-05-05 23:08 41.81013 30.92332 35071 ft 475 kts 71°
2026-05-05 23:09 41.82630 31.00915 35055 ft 474 kts 71°
2026-05-05 23:09 41.84232 31.09418 35052 ft 472 kts 71°
2026-05-05 23:10 41.86012 31.17855 35052 ft 469 kts 69°
2026-05-05 23:10 41.87857 31.26244 35054 ft 468 kts 69°
2026-05-05 23:11 41.89667 31.34636 35062 ft 467 kts 70°
2026-05-05 23:11 41.91452 31.43038 35065 ft 468 kts 70°
2026-05-05 23:12 41.93220 31.51402 35056 ft 469 kts 70°
2026-05-05 23:12 41.94999 31.59838 35060 ft 470 kts 70°
2026-05-05 23:13 41.96749 31.68309 35071 ft 471 kts 70°
2026-05-05 23:13 41.98489 31.76803 35061 ft 471 kts 70°
2026-05-05 23:14 42.00227 31.85297 35056 ft 472 kts 70°
2026-05-05 23:14 42.01957 31.93756 35071 ft 472 kts 70°
2026-05-05 23:15 42.03703 32.02259 35061 ft 472 kts 70°
2026-05-05 23:15 42.05444 32.10769 35056 ft 471 kts 70°
2026-05-05 23:16 42.07177 32.19290 35056 ft 471 kts 70°
2026-05-05 23:16 42.08899 32.27787 35056 ft 470 kts 70°
2026-05-05 23:17 42.10785 32.36202 35060 ft 469 kts 68°
2026-05-05 23:17 42.12761 32.44510 35066 ft 469 kts 68°
2026-05-05 23:18 42.14702 32.52896 35061 ft 469 kts 69°
2026-05-05 23:18 42.16352 32.61413 35063 ft 472 kts 76°
2026-05-05 23:19 42.16904 32.70283 35063 ft 477 kts 84°
2026-05-05 23:19 42.17059 32.79240 35057 ft 478 kts 84°
2026-05-05 23:20 42.17224 32.88191 35054 ft 478 kts 84°
2026-05-05 23:20 42.17410 32.97155 35065 ft 479 kts 84°
2026-05-05 23:21 42.17598 33.06056 35059 ft 479 kts 84°
2026-05-05 23:21 42.17780 33.15042 35057 ft 479 kts 84°
2026-05-05 23:22 42.17955 33.24026 35057 ft 479 kts 84°
2026-05-05 23:22 42.18121 33.33016 35055 ft 479 kts 84°
2026-05-05 23:23 42.18281 33.42005 35063 ft 480 kts 85°
2026-05-05 23:23 42.18434 33.50947 35060 ft 481 kts 85°
2026-05-05 23:24 42.18580 33.59961 35065 ft 481 kts 85°
2026-05-05 23:24 42.18720 33.68992 35055 ft 482 kts 85°
2026-05-05 23:25 42.18851 33.78022 35073 ft 482 kts 86°
2026-05-05 23:25 42.18490 33.85550 35062 ft 488 kts 95°
2026-05-05 23:26 42.17326 33.94566 35065 ft 489 kts 96°
2026-05-05 23:26 42.16145 34.03595 35057 ft 489 kts 96°
2026-05-05 23:27 42.14996 34.12662 35238 ft 493 kts 96°
2026-05-05 23:27 42.14423 34.17214 35520 ft 493 kts 97°
2026-05-05 23:27 42.13850 34.21761 35814 ft 492 kts 97°
2026-05-05 23:28 42.13274 34.26299 36110 ft 491 kts 97°
2026-05-05 23:28 42.12697 34.30836 36398 ft 491 kts 97°
2026-05-05 23:28 42.12119 34.35361 36688 ft 490 kts 98°
2026-05-05 23:28 42.11540 34.39878 36932 ft 490 kts 98°
2026-05-05 23:29 42.10343 34.48971 36853 ft 492 kts 98°
2026-05-05 23:29 42.09086 34.57992 36850 ft 489 kts 99°
2026-05-05 23:30 42.07831 34.66976 36855 ft 487 kts 99°
2026-05-05 23:30 42.06582 34.75932 36858 ft 487 kts 99°
2026-05-05 23:31 42.05327 34.84899 36867 ft 488 kts 99°
2026-05-05 23:31 42.04115 34.93876 36743 ft 487 kts 99°
2026-05-05 23:32 42.03529 34.98363 36503 ft 488 kts 98°
2026-05-05 23:32 42.02935 35.02861 36238 ft 489 kts 99°
2026-05-05 23:32 42.02350 35.07371 35988 ft 490 kts 97°
2026-05-05 23:32 42.01989 35.11911 35731 ft 488 kts 92°
2026-05-05 23:33 42.01751 35.16470 35429 ft 488 kts 92°
2026-05-05 23:33 42.01536 35.20960 35159 ft 488 kts 92°
2026-05-05 23:33 42.01098 35.30027 35075 ft 487 kts 92°
2026-05-05 23:34 42.00623 35.39140 35064 ft 489 kts 93°
2026-05-05 23:34 42.00122 35.48267 35060 ft 490 kts 93°
2026-05-05 23:35 41.99609 35.57417 35058 ft 490 kts 93°
2026-05-05 23:35 41.99091 35.66555 35055 ft 490 kts 93°
2026-05-05 23:36 41.98567 35.75691 35053 ft 490 kts 93°
2026-05-05 23:36 41.98036 35.84820 35054 ft 490 kts 94°
2026-05-05 23:37 41.97498 35.93938 35060 ft 489 kts 94°
2026-05-05 23:37 41.96955 36.03041 35056 ft 489 kts 94°
2026-05-05 23:38 41.96404 36.12141 35058 ft 488 kts 94°
2026-05-05 23:38 41.95845 36.21239 35059 ft 488 kts 94°
2026-05-05 23:39 41.95281 36.30323 35060 ft 488 kts 94°
2026-05-05 23:39 41.94709 36.39410 35059 ft 488 kts 94°
2026-05-05 23:40 41.94130 36.48495 35059 ft 488 kts 94°
2026-05-05 23:40 41.93543 36.57581 35059 ft 489 kts 94°
2026-05-05 23:41 41.92949 36.66670 35062 ft 489 kts 95°
2026-05-05 23:41 41.92348 36.75756 35058 ft 488 kts 95°
2026-05-05 23:42 41.91741 36.84835 35053 ft 488 kts 95°
2026-05-05 23:42 41.91127 36.93908 35053 ft 488 kts 95°
2026-05-05 23:43 41.90283 37.02931 35049 ft 488 kts 102°
2026-05-05 23:43 41.88270 37.11619 35190 ft 490 kts 113°
2026-05-05 23:44 41.86929 37.15825 35473 ft 490 kts 114°
2026-05-05 23:44 41.85580 37.20009 35817 ft 488 kts 114°
2026-05-05 23:44 41.84238 37.24182 36149 ft 486 kts 114°
2026-05-05 23:44 41.82908 37.28351 36428 ft 486 kts 113°
2026-05-05 23:45 41.81585 37.32526 36689 ft 486 kts 113°
2026-05-05 23:45 41.80266 37.36698 36952 ft 486 kts 113°
2026-05-05 23:45 41.77616 37.45082 37045 ft 489 kts 114°
2026-05-05 23:46 41.74961 37.53451 37045 ft 487 kts 113°
2026-05-05 23:46 41.72314 37.61768 37055 ft 484 kts 114°
2026-05-05 23:47 41.69668 37.70046 37058 ft 483 kts 114°
2026-05-05 23:47 41.67011 37.78304 37054 ft 483 kts 114°
2026-05-05 23:48 41.64362 37.86514 37060 ft 484 kts 114°
2026-05-05 23:48 41.61688 37.94782 37055 ft 485 kts 114°
2026-05-05 23:49 41.59003 38.03061 37057 ft 486 kts 114°
2026-05-05 23:49 41.56307 38.11350 37059 ft 487 kts 114°
2026-05-05 23:50 41.53603 38.19640 37057 ft 488 kts 114°
2026-05-05 23:50 41.50886 38.27941 37056 ft 488 kts 114°
2026-05-05 23:51 41.48164 38.36235 37058 ft 488 kts 114°
2026-05-05 23:51 41.45437 38.44519 37060 ft 488 kts 114°
2026-05-05 23:52 41.42703 38.52799 37061 ft 488 kts 115°
2026-05-05 23:52 41.39968 38.61057 37052 ft 487 kts 115°
2026-05-05 23:53 41.37229 38.69304 37056 ft 486 kts 115°
2026-05-05 23:53 41.34490 38.77529 37057 ft 486 kts 115°
2026-05-05 23:54 41.31772 38.85755 37051 ft 486 kts 114°
2026-05-05 23:54 41.29080 38.93992 37058 ft 486 kts 114°
2026-05-05 23:55 41.26378 39.02223 37057 ft 486 kts 115°
2026-05-05 23:55 41.23666 39.10449 37052 ft 486 kts 115°
2026-05-05 23:56 41.20941 39.18668 37054 ft 486 kts 115°
2026-05-05 23:56 41.18113 39.26816 37052 ft 486 kts 116°
2026-05-05 23:57 41.15246 39.34947 37049 ft 486 kts 116°
2026-05-05 23:57 41.12386 39.43084 37049 ft 487 kts 116°
2026-05-05 23:58 41.09528 39.51221 37050 ft 487 kts 116°
2026-05-05 23:58 41.06665 39.59354 37050 ft 487 kts 116°
2026-05-05 23:59 41.03795 39.67483 37042 ft 487 kts 116°
2026-05-05 23:59 41.01008 39.75651 37044 ft 488 kts 111°
2026-05-06 00:00 40.99410 39.84385 37055 ft 490 kts 99°
2026-05-06 00:00 40.99071 39.93404 37061 ft 491 kts 92°
2026-05-06 00:01 40.98938 40.02446 37047 ft 492 kts 93°
2026-05-06 00:01 40.98733 40.11504 37055 ft 492 kts 93°
2026-05-06 00:02 40.98496 40.20571 37058 ft 493 kts 94°
2026-05-06 00:02 40.98253 40.29638 37058 ft 493 kts 94°
2026-05-06 00:03 40.98004 40.38719 37062 ft 494 kts 94°
2026-05-06 00:03 40.97748 40.47804 37051 ft 494 kts 94°
2026-05-06 00:04 40.97485 40.56893 37058 ft 494 kts 94°
2026-05-06 00:04 40.97216 40.65985 37052 ft 494 kts 94°
2026-05-06 00:05 40.96797 40.79619 37044 ft 494 kts 94°
2026-05-06 00:06 40.96510 40.88694 37036 ft 494 kts 94°
2026-05-06 00:06 40.96212 40.97759 37047 ft 493 kts 94°
2026-05-06 00:07 40.95906 41.06765 37047 ft 493 kts 94°
2026-05-06 00:07 40.95593 41.15823 37037 ft 493 kts 94°
2026-05-06 00:08 40.95272 41.24890 37035 ft 494 kts 95°
2026-05-06 00:08 40.94945 41.33975 37022 ft 494 kts 95°
2026-05-06 00:09 40.94611 41.43050 37030 ft 494 kts 95°
2026-05-06 00:09 40.94267 41.52136 37021 ft 495 kts 95°
2026-05-06 00:10 40.93918 41.61250 37022 ft 497 kts 95°
2026-05-06 00:10 40.93618 41.68905 37012 ft 498 kts 95°
2026-05-06 00:11 40.93254 41.78006 37016 ft 499 kts 95°
2026-05-06 00:11 40.92882 41.87158 37020 ft 499 kts 95°
2026-05-06 00:12 40.92501 41.96313 37013 ft 498 kts 95°
2026-05-06 00:12 40.92117 42.05439 37017 ft 497 kts 95°
2026-05-06 00:13 40.91724 42.14566 37000 ft 497 kts 96°
2026-05-06 00:13 40.91323 42.23690 37017 ft 496 kts 96°
2026-05-06 00:14 40.90915 42.32802 36989 ft 496 kts 96°
2026-05-06 00:14 40.90502 42.41902 37003 ft 496 kts 96°
2026-05-06 00:15 40.90081 42.50993 36985 ft 495 kts 96°
2026-05-06 00:15 40.89653 42.60087 37005 ft 495 kts 96°
2026-05-06 00:16 40.89219 42.69176 37009 ft 496 kts 97°
2026-05-06 00:16 40.88776 42.78283 37002 ft 497 kts 97°
2026-05-06 00:17 40.88325 42.87401 36985 ft 498 kts 97°
2026-05-06 00:17 40.87866 42.96534 36984 ft 498 kts 97°
2026-05-06 00:18 40.87401 43.05669 36997 ft 499 kts 97°
2026-05-06 00:18 40.86926 43.14815 36988 ft 500 kts 97°
2026-05-06 00:19 40.86444 43.23980 36991 ft 500 kts 97°
2026-05-06 00:19 40.85958 43.33086 36979 ft 500 kts 97°
2026-05-06 00:20 40.85462 43.42247 36969 ft 500 kts 98°
2026-05-06 00:20 40.84956 43.51459 36966 ft 499 kts 98°
2026-05-06 00:21 40.84450 43.60539 36974 ft 498 kts 98°
2026-05-06 00:21 40.83937 43.69662 36964 ft 498 kts 97°
2026-05-06 00:22 40.83595 43.78794 36953 ft 498 kts 96°
2026-05-06 00:22 40.83344 43.87938 36967 ft 498 kts 96°
2026-05-06 00:23 40.83070 43.97068 36964 ft 498 kts 97°
2026-05-06 00:23 40.82765 44.06199 36975 ft 498 kts 97°
2026-05-06 00:24 40.82444 44.15328 36974 ft 498 kts 97°
2026-05-06 00:24 40.82116 44.24468 36978 ft 499 kts 97°
2026-05-06 00:25 40.81782 44.33616 36994 ft 500 kts 97°
2026-05-06 00:25 40.81440 44.42796 36979 ft 501 kts 97°
2026-05-06 00:26 40.81091 44.51972 36986 ft 501 kts 97°
2026-05-06 00:26 40.80738 44.61153 36958 ft 501 kts 98°
2026-05-06 00:27 40.80370 44.70361 36972 ft 503 kts 98°
2026-05-06 00:27 40.79996 44.79575 36977 ft 502 kts 98°
2026-05-06 00:28 40.79618 44.88790 36971 ft 503 kts 98°
2026-05-06 00:28 40.79231 44.98007 36953 ft 503 kts 98°
2026-05-06 00:29 40.78838 45.07216 36945 ft 503 kts 98°
2026-05-06 00:29 40.78436 45.16425 36955 ft 502 kts 98°
2026-05-06 00:30 40.78026 45.25625 36956 ft 502 kts 98°
2026-05-06 00:30 40.77611 45.34826 36971 ft 503 kts 98°
2026-05-06 00:31 40.77188 45.44051 36942 ft 504 kts 99°
2026-05-06 00:31 40.77142 45.53320 36955 ft 510 kts 89°
2026-05-06 00:32 40.78091 45.62635 36948 ft 513 kts 86°
2026-05-06 00:32 40.79122 45.71950 36939 ft 513 kts 86°
2026-05-06 00:33 40.80105 45.81285 36944 ft 514 kts 87°
2026-05-06 00:33 40.81049 45.90629 36952 ft 514 kts 87°
2026-05-06 00:34 40.81979 45.99925 36937 ft 514 kts 87°
2026-05-06 00:34 40.82909 46.09285 36925 ft 515 kts 87°
2026-05-06 00:35 40.83834 46.18656 36936 ft 515 kts 88°
2026-05-06 00:35 40.84759 46.28111 36921 ft 516 kts 88°
2026-05-06 00:36 40.85665 46.37447 36939 ft 516 kts 88°
2026-05-06 00:36 40.86571 46.46862 36949 ft 517 kts 88°
2026-05-06 00:37 40.87470 46.56286 36957 ft 517 kts 88°
2026-05-06 00:37 40.88362 46.65721 36926 ft 517 kts 88°
2026-05-06 00:38 40.89247 46.75167 36978 ft 518 kts 88°
2026-05-06 00:38 40.90273 46.84628 36979 ft 524 kts 82°
2026-05-06 00:39 40.92007 46.94013 37002 ft 527 kts 80°
2026-05-06 00:39 40.93831 47.03477 37000 ft 528 kts 80°
2026-05-06 00:40 40.95589 47.12844 37018 ft 528 kts 81°